Temperature
17 15 14 14 13 15 16 16 15 15 13 11 10 11 12 12 9 9 10 11 11 12 12 11 10 9 8 7 7 7 6 6 5 5 4 3 3 2 2 1 1 0 -1 -2
15 15 15 16 16 16 16 16 15 15 13 12 10 11 12 11 10 10 10 10 12 13 12 11 10 9 9 8 8 7 7 6 5 5 4 3 3 2 2 1 1 -0 -1 -2
17 16 17 17 17 17 16 16 15 15 14 12 12 11 12 12 11 11 12 13 13 13 13 13 11 10 10 9 9 8 7 6 6 5 4 3 3 2 2 1 0 -0 -1 -2
17 16 16 16 16 16 15 15 15 15 13 11 13 11 12 13 11 10 11 12 14 15 14 14 13 12 11 11 10 9 8 7 6 5 4 3 3 2 2 1 0 -0 -1 -2
16 16 16 15 16 16 15 15 14 14 13 11 11 11 13 13 12 12 12 15 16 17 16 15 14 14 13 12 11 9 8 7 6 5 4 3 3 2 1 1 0 -0 -1 -2
15 16 15 15 15 15 14 14 13 10 10 11 11 11 12 11 12 13 14 17 19 19 17 16 15 14 13 12 11 10 8 7 6 5 4 3 3 2 1 1 0 -1 -1 -2
15 15 15 15 15 14 14 13 13 13 11 12 12 12 13 13 12 13 16 19 20 19 18 17 16 15 14 13 12 10 9 7 6 5 4 3 3 2 1 1 -0 -1 -1 -2
15 14 14 14 14 13 12 13 13 14 12 12 13 12 14 14 14 16 17 19 20 19 19 18 17 16 15 14 12 11 10 8 6 5 4 3 3 2 1 1 -0 -1 -1 -2
14 14 14 14 14 14 14 12 12 11 12 11 11 11 12 14 14 14 15 17 19 19 19 18 17 16 15 14 13 12 10 9 7 5 4 3 2 2 1 0 -0 -1 -2 -2
14 14 14 13 13 13 13 12 10 11 12 11 11 11 13 15 14 12 12 15 18 19 19 18 17 16 15 14 13 11 10 8 7 5 4 3 3 2 1 0 -0 -1 -2 -3
14 13 13 12 11 12 11 12 11 10 10 10 11 13 13 14 14 13 13 16 19 19 19 18 18 17 15 14 13 11 10 8 6 5 4 3 2 2 1 0 -0 -1 -2 -3
12 11 11 12 12 11 11 11 10 11 11 9 8 13 14 12 12 13 15 18 19 19 19 18 17 16 15 14 13 11 10 8 7 5 4 3 2 1 1 0 -1 -1 -2 -3
12 11 12 13 13 12 12 11 10 11 10 9 9 13 14 13 14 15 16 17 19 19 18 18 17 16 15 14 13 12 10 8 7 5 3 3 2 1 1 0 -1 -2 -2 -3
11 10 11 13 14 13 12 12 11 11 10 10 10 14 15 15 14 15 17 18 18 18 18 17 17 16 15 14 13 12 10 9 7 5 3 3 2 1 1 -0 -1 -2 -2 -3
9 9 9 10 11 11 11 12 11 11 12 12 14 14 16 17 14 15 17 17 17 17 17 17 17 16 15 14 13 12 10 9 7 5 3 3 2 1 0 -0 -1 -2 -2 -3
7 8 9 9 10 10 10 11 12 12 12 12 13 14 16 16 15 15 15 15 16 17 17 17 17 16 15 15 14 13 11 9 7 5 4 3 2 1 0 -0 -1 -2 -2 -3
6 7 8 8 10 10 10 12 12 11 10 11 12 14 15 13 12 13 15 16 16 16 17 17 17 16 16 15 14 13 12 10 8 6 4 3 2 1 0 -1 -1 -1 -2 -3
7 7 7 6 9 10 13 13 12 12 12 11 12 13 13 12 14 15 15 16 16 17 17 17 16 15 15 14 14 13 11 10 8 6 4 3 2 1 0 -1 -1 -1 -2 -3
7 8 7 6 7 9 10 11 11 11 11 12 12 13 13 13 12 15 18 17 17 17 16 16 15 14 14 14 13 12 11 9 8 6 5 3 2 1 0 -1 -1 -1 -2 -2
6 6 6 5 6 8 12 13 13 13 12 14 12 11 12 11 10 13 17 16 16 15 15 14 14 14 14 13 12 11 10 9 8 7 6 4 2 1 0 -0 -1 -2 -2 -2
5 5 5 5 6 8 10 11 12 12 13 14 14 14 13 11 12 15 15 15 15 14 14 14 13 13 13 12 11 11 10 9 9 7 5 3 2 1 0 -1 -1 -2 -2 -2
6 4 4 4 5 7 10 10 11 13 14 15 15 15 14 14 14 14 14 14 14 13 13 13 12 12 12 11 11 10 10 9 7 6 4 3 2 1 -0 -1 -1 -2 -2 -2
6 7 7 7 10 11 12 12 14 13 13 14 14 14 13 13 13 13 13 13 13 12 12 12 11 11 11 11 10 9 9 8 6 5 4 3 2 1 -0 -1 -1 -2 -2 -2
7 7 6 6 7 10 12 12 13 14 13 13 13 13 12 12 12 12 12 12 12 11 11 11 11 11 11 10 10 9 8 6 5 4 3 2 1 0 -0 -1 -1 -2 -2 -2
8 8 7 8 8 10 11 13 13 13 12 12 12 11 11 11 11 11 11 11 10 10 10 10 10 10 10 10 9 9 7 6 5 3 2 1 1 0 -0 -1 -1 -1 -2 -2
8 8 8 9 10 9 10 11 11 11 10 10 10 10 10 10 9 9 9 9 9 9 9 9 9 9 9 9 9 8 7 5 4 2 1 1 0 -0 -1 -1 -1 -2 -2 -3
Wind_Speed
2 3 4 8 9 6 4 5 7 6 5 8 12 18 18 10 12 15 14 15 18 22 17 13 15 14 14 15 15 16 13 11 8 5 4 3 3 3 5 9 10 11 10 9
3 5 7 6 5 5 4 5 5 4 4 7 9 15 16 10 12 14 17 19 20 18 14 14 15 16 18 19 18 17 16 14 12 7 5 4 3 3 6 7 8 10 10 9
6 6 3 4 4 4 4 4 5 4 3 4 6 11 9 6 7 10 12 14 15 19 19 17 18 19 19 21 21 19 17 15 13 10 5 3 2 1 2 4 4 8 9 10
5 3 3 4 5 5 5 2 1 1 2 5 2 6 9 6 7 9 14 14 17 18 17 17 18 19 21 22 18 17 17 15 13 12 9 8 7 6 6 4 4 8 9 9
5 4 5 7 6 6 5 2 1 0 1 5 3 4 11 5 8 13 14 16 19 18 17 18 20 22 21 19 17 16 16 15 14 13 12 10 8 7 5 4 6 6 7 9
6 3 5 6 2 2 4 4 4 5 4 5 7 7 9 7 10 10 10 13 16 16 16 16 15 14 15 14 15 15 17 16 15 14 12 12 11 9 7 7 6 5 4 6
5 4 3 3 3 2 4 4 4 4 2 7 4 6 11 12 11 11 12 13 14 13 13 13 14 15 16 17 18 17 18 17 16 15 14 13 12 11 11 9 8 7 5 5
4 7 5 4 7 6 6 7 6 5 5 6 5 8 11 11 10 11 11 10 10 11 11 14 16 16 17 19 19 19 20 17 17 16 14 12 11 9 8 9 7 7 6 6
6 6 1 3 3 6 5 6 7 5 4 6 8 9 12 8 7 8 9 9 11 12 12 13 13 14 16 18 21 21 20 17 17 16 14 12 11 10 10 9 8 6 6 7
7 6 4 1 1 3 3 5 5 4 4 7 8 8 7 9 10 10 10 12 14 12 11 11 12 14 15 16 16 16 18 18 15 15 14 12 11 11 10 8 9 8 8 9
5 6 4 1 7 9 6 5 6 5 4 6 6 9 8 10 10 12 15 15 14 14 13 13 13 12 12 11 14 16 16 15 15 15 14 12 11 11 10 9 9 8 7 8
5 4 6 9 6 5 8 9 9 6 7 6 5 11 9 11 11 11 13 13 12 12 11 11 11 10 11 14 15 17 17 16 16 15 14 13 11 10 10 10 9 8 8 7
6 4 3 7 2 2 5 6 7 5 3 5 6 13 6 7 8 8 10 11 11 11 11 9 9 11 14 15 16 17 17 17 15 14 13 12 12 11 11 10 9 8 8 8
5 6 8 10 9 6 7 6 8 8 7 8 14 22 21 19 14 12 11 12 11 11 11 10 10 12 13 14 16 17 17 16 15 15 14 14 14 13 12 10 9 9 8 8
5 6 8 11 11 7 9 12 11 15 15 16 20 23 29 26 14 12 12 11 11 12 11 12 12 12 12 14 15 16 16 16 16 16 16 16 13 11 10 10 9 9 8 8
5 6 4 7 10 10 11 17 20 19 16 20 25 28 29 21 11 11 12 12 12 13 12 12 12 12 14 16 16 16 17 17 16 17 17 14 12 12 11 11 10 9 8 8
7 7 4 7 6 6 10 15 17 11 10 11 18 21 20 14 13 12 11 11 12 13 12 12 12 14 15 16 17 18 18 15 17 17 15 14 14 13 13 12 10 10 9 8
10 8 5 4 1 11 12 6 10 11 14 15 17 20 16 13 10 10 10 11 13 12 12 12 11 11 12 12 13 13 13 15 17 17 15 15 14 14 12 11 11 10 8 7
7 8 6 4 6 12 10 9 7 9 11 12 17 21 17 7 7 9 9 8 11 12 11 11 10 10 9 10 11 12 14 15 16 18 17 16 16 14 13 13 12 10 8 8
3 4 5 5 6 10 9 5 2 2 9 9 7 11 7 2 3 7 8 6 8 10 9 9 9 7 9 9 10 14 16 17 20 20 18 16 16 15 15 14 12 9 8 8
4 4 7 9 10 12 10 4 5 5 9 5 3 4 3 5 8 9 10 10 10 11 12 11 10 9 10 8 11 15 16 21 19 15 14 15 16 16 14 12 10 9 9 7
11 9 9 8 8 12 8 7 9 9 5 6 7 6 7 9 12 12 12 12 12 13 12 11 10 11 9 8 12 16 19 17 12 13 14 15 15 13 12 12 10 9 9 8
9 10 8 12 12 6 6 10 8 5 8 9 8 10 10 11 12 14 12 12 12 12 12 10 10 12 10 9 13 18 16 11 12 14 15 14 14 13 12 13 12 9 9 7
8 7 7 9 11 11 11 10 11 12 12 12 12 13 11 13 14 15 14 12 11 12 12 10 10 11 13 10 14 17 11 11 14 15 15 14 14 14 13 11 11 10 10 9
9 7 10 18 14 12 13 11 10 10 11 13 14 13 12 12 13 13 12 12 11 11 10 9 10 12 15 11 13 13 10 13 15 15 15 14 14 14 13 13 12 12 11 10
13 16 21 28 18 16 15 12 15 16 15 14 13 12 11 10 11 11 11 10 10 11 11 11 11 13 15 12 12 11 12 15 16 14 14 13 12 12 12 11 10 16 14 16
Wind_Direction
111 93 214 218 205 216 224 235 260 260 191 188 234 259 269 220 215 229 226 221 223 228 225 210 203 195 188 187 186 185 184 181 169 162 172 189 215 223 243 253 250 239 242 253
38 253 231 196 197 224 238 270 274 280 194 206 265 273 270 225 212 222 223 224 226 231 224 213 203 196 195 193 192 190 189 184 182 178 169 173 178 204 229 241 238 236 244 256
226 241 188 188 218 241 262 244 255 276 337 262 305 299 283 252 220 231 228 226 228 226 225 216 208 203 200 200 196 195 191 187 184 174 156 154 155 226 233 228 230 239 251 262
246 229 198 208 234 198 255 212 214 291 333 292 225 292 289 267 259 246 238 232 233 230 226 218 211 206 206 205 197 194 188 186 182 174 174 174 189 205 216 214 223 245 255 260
262 206 205 222 232 195 216 158 156 261 221 300 238 222 280 281 263 256 243 233 235 231 223 220 214 211 208 200 194 191 185 186 182 180 182 183 198 209 216 223 237 245 252 257
244 217 208 212 170 138 121 66 53 50 69 286 224 191 273 237 221 242 243 233 231 230 223 223 216 206 201 192 189 187 186 188 184 184 185 189 198 204 213 224 234 241 242 252
292 261 228 154 145 67 105 86 349 326 324 255 224 210 250 246 225 221 227 231 229 223 218 217 209 202 197 191 191 190 189 191 188 188 192 196 198 199 209 217 225 230 237 242
284 286 228 198 190 184 184 157 180 239 253 286 282 237 254 257 251 236 238 241 237 227 218 217 212 204 199 195 192 191 193 193 190 193 198 198 196 199 209 212 213 220 228 237
218 264 213 185 192 179 184 204 183 165 262 270 267 276 296 266 265 239 234 241 242 235 225 221 213 203 198 195 195 194 194 194 194 195 195 198 198 199 206 209 212 221 228 242
190 255 266 196 57 250 206 153 118 158 235 264 280 270 252 272 256 247 241 239 245 244 239 230 216 208 203 200 196 194 195 196 194 193 196 201 200 202 204 204 214 222 230 241
181 220 276 273 212 205 168 190 189 186 194 202 265 266 231 240 246 239 236 235 239 239 235 230 222 211 199 190 191 195 197 196 195 196 197 196 196 199 200 208 217 223 230 234
179 158 255 252 238 195 187 198 168 187 237 213 235 267 260 253 263 248 246 244 243 242 239 232 218 199 195 197 198 199 200 200 200 196 195 198 194 194 201 212 218 221 229 232
151 147 300 322 313 213 226 218 196 188 192 215 231 268 277 294 290 266 257 262 261 257 251 237 214 206 207 205 204 204 203 203 198 192 194 196 198 200 207 213 217 220 226 233
132 183 202 229 239 200 220 225 201 189 219 241 237 259 275 278 276 276 269 263 263 258 250 238 226 220 215 211 208 206 206 201 195 193 195 200 203 205 208 210 213 217 223 234
148 225 240 254 262 247 242 249 231 220 226 239 257 258 268 273 271 260 261 267 268 262 253 241 234 228 220 216 213 210 207 201 196 195 200 205 202 199 200 205 211 216 224 238
174 222 259 272 262 250 254 255 250 243 238 242 257 267 267 276 277 266 265 266 266 262 257 250 240 232 225 220 216 211 208 202 195 199 203 200 193 195 201 206 210 217 227 237
189 192 218 264 282 314 266 240 238 228 216 216 245 257 270 278 271 264 265 262 258 261 263 258 247 237 232 224 215 212 208 197 197 202 201 195 193 199 203 206 211 220 227 235
175 175 201 260 306 243 248 233 225 236 248 231 245 260 268 266 279 270 257 256 264 265 266 265 256 247 237 225 215 209 198 196 200 203 200 195 193 199 199 202 214 221 223 232
179 172 194 208 244 268 287 273 220 219 269 246 244 262 273 297 315 294 268 240 249 261 266 268 264 255 244 224 207 196 199 200 203 205 203 197 194 194 196 206 216 218 219 231
99 142 185 201 227 251 253 251 167 138 285 282 250 266 294 62 325 288 304 308 286 285 284 283 281 267 250 228 193 196 204 205 210 209 203 195 192 193 199 207 211 211 216 229
166 194 206 221 237 259 259 242 143 213 256 309 340 311 296 220 239 267 301 303 295 292 289 285 277 265 253 220 193 207 212 216 215 203 193 190 192 196 199 200 203 206 213 223
191 190 206 198 222 254 235 159 197 233 305 317 319 312 292 272 276 282 287 287 290 291 290 286 276 270 257 214 203 217 224 222 199 188 189 191 191 192 194 195 200 203 208 220
210 205 210 207 229 259 196 212 247 286 288 289 293 295 294 287 285 287 286 286 288 286 286 282 271 273 265 225 212 227 232 203 183 186 191 190 189 192 190 192 197 199 205 215
240 225 236 253 256 264 268 258 262 261 263 274 282 287 288 283 285 288 289 289 289 286 285 283 279 275 273 245 225 233 225 186 185 191 192 189 189 191 193 194 197 199 202 208
238 244 257 267 271 278 263 260 268 281 290 293 291 290 286 282 282 284 288 289 289 289 289 286 278 275 275 263 240 233 209 186 191 194 192 191 192 192 194 198 202 202 206 202
239 246 259 269 272 272 281 283 287 289 289 291 295 299 300 294 287 290 292 291 291 293 292 291 285 279 279 271 255 233 204 194 194 196 195 193 192 191 193 195 205 216 212 219
Height
1563 1567 1570 1568 1567 1566 1565 1567 1567 1562 1560 1565 1563 1555 1544 1544 1545 1542 1541 1541 1540 1539 1542 1545 1547 1548 1549 1549 1550 1551 1552 1553 1555 1555 1554 1553 1552 1550 1548 1545 1543 1540 1537 1534
1567 1568 1561 1560 1561 1563 1563 1565 1564 1561 1560 1562 1560 1551 1537 1534 1534 1532 1532 1532 1532 1533 1535 1537 1539 1541 1541 1541 1542 1543 1544 1546 1548 1549 1549 1548 1547 1545 1543 1541 1538 1535 1533 1530
1564 1561 1558 1559 1560 1562 1561 1563 1562 1561 1560 1560 1561 1550 1534 1527 1527 1526 1525 1525 1525 1526 1527 1529 1531 1532 1533 1533 1533 1535 1537 1539 1541 1543 1543 1542 1541 1539 1538 1536 1533 1531 1528 1525
1560 1558 1558 1559 1559 1559 1563 1559 1559 1560 1565 1568 1562 1565 1537 1526 1525 1521 1518 1518 1517 1518 1520 1522 1523 1524 1524 1525 1527 1529 1530 1532 1534 1535 1536 1535 1535 1534 1533 1531 1528 1526 1524 1521
1559 1557 1558 1559 1557 1556 1557 1557 1559 1560 1564 1568 1564 1565 1540 1527 1524 1515 1510 1509 1509 1511 1513 1514 1515 1516 1517 1519 1520 1521 1523 1524 1526 1528 1529 1529 1528 1528 1527 1525 1523 1521 1519 1516
1556 1554 1554 1554 1554 1554 1556 1559 1562 1567 1570 1572 1559 1564 1546 1527 1515 1507 1502 1502 1502 1504 1506 1507 1509 1510 1511 1512 1513 1513 1515 1516 1518 1520 1521 1521 1522 1521 1520 1519 1517 1515 1513 1511
1557 1554 1552 1552 1555 1557 1558 1566 1573 1570 1574 1566 1551 1553 1532 1507 1502 1498 1496 1496 1497 1499 1500 1501 1502 1502 1503 1503 1504 1505 1506 1507 1510 1512 1513 1514 1515 1514 1513 1512 1511 1510 1508 1505
1564 1562 1552 1551 1552 1556 1560 1563 1572 1574 1574 1563 1547 1545 1517 1498 1494 1492 1492 1493 1493 1494 1495 1495 1495 1495 1495 1496 1496 1497 1498 1499 1502 1504 1506 1507 1508 1507 1507 1506 1505 1503 1502 1499
1562 1559 1550 1549 1549 1551 1555 1560 1559 1567 1567 1568 1552 1535 1513 1493 1491 1489 1488 1489 1488 1489 1489 1489 1489 1489 1489 1489 1489 1489 1490 1492 1494 1496 1499 1500 1501 1500 1500 1499 1498 1497 1495 1493
1553 1559 1550 1549 1550 1549 1551 1553 1563 1567 1569 1568 1553 1539 1519 1495 1491 1488 1486 1484 1483 1483 1484 1483 1483 1483 1482 1482 1483 1483 1484 1485 1487 1489 1491 1492 1493 1493 1493 1493 1492 1491 1489 1487
1551 1558 1553 1552 1552 1549 1553 1554 1554 1560 1563 1566 1558 1528 1498 1491 1485 1484 1480 1478 1478 1478 1478 1478 1477 1477 1477 1476 1476 1476 1476 1478 1479 1481 1483 1484 1486 1486 1486 1486 1486 1485 1483 1481
1550 1558 1559 1549 1543 1542 1545 1545 1550 1557 1554 1557 1556 1520 1488 1485 1480 1478 1475 1474 1474 1474 1474 1473 1472 1471 1470 1469 1468 1468 1468 1469 1471 1473 1475 1477 1478 1479 1479 1479 1479 1478 1477 1475
1550 1556 1558 1549 1548 1544 1543 1541 1542 1543 1547 1552 1550 1513 1484 1480 1477 1474 1473 1471 1471 1470 1469 1467 1466 1464 1463 1462 1461 1461 1460 1461 1463 1466 1467 1469 1470 1471 1472 1472 1472 1472 1470 1468
1547 1553 1554 1549 1540 1537 1538 1536 1536 1540 1543 1540 1526 1501 1483 1478 1475 1473 1471 1468 1467 1465 1463 1461 1459 1458 1457 1455 1454 1453 1453 1454 1455 1457 1458 1459 1461 1463 1465 1466 1466 1465 1464 1462
1546 1550 1547 1540 1534 1535 1533 1530 1529 1529 1522 1520 1501 1493 1477 1468 1468 1467 1465 1463 1461 1458 1457 1455 1453 1452 1450 1448 1447 1445 1445 1445 1446 1447 1448 1450 1454 1456 1457 1458 1459 1458 1457 1456
1545 1547 1543 1538 1530 1530 1529 1521 1516 1513 1510 1504 1494 1482 1465 1463 1463 1461 1459 1457 1455 1452 1451 1450 1448 1446 1444 1442 1440 1438 1436 1436 1437 1438 1439 1442 1446 1448 1449 1450 1451 1451 1451 1450
1543 1545 1545 1540 1530 1526 1524 1506 1500 1500 1495 1493 1488 1471 1459 1460 1458 1456 1454 1452 1450 1448 1447 1445 1443 1441 1438 1436 1433 1430 1429 1428 1428 1428 1430 1433 1437 1439 1441 1443 1444 1444 1444 1444
1535 1539 1542 1541 1531 1530 1499 1487 1487 1487 1481 1479 1472 1462 1458 1456 1454 1452 1450 1448 1446 1444 1443 1441 1439 1436 1433 1430 1426 1424 1422 1420 1419 1419 1421 1424 1427 1430 1433 1436 1437 1438 1438 1437
1526 1531 1536 1541 1535 1514 1498 1486 1483 1484 1477 1466 1464 1457 1453 1454 1452 1446 1445 1445 1444 1442 1440 1437 1434 1430 1427 1423 1419 1416 1413 1411 1409 1409 1411 1414 1418 1422 1425 1427 1430 1431 1431 1431
1526 1527 1533 1537 1534 1517 1489 1479 1477 1479 1478 1460 1458 1455 1454 1455 1457 1449 1445 1443 1441 1439 1436 1432 1428 1424 1419 1416 1412 1407 1404 1401 1399 1399 1401 1405 1409 1413 1416 1419 1422 1424 1425 1425
1529 1530 1532 1528 1523 1500 1483 1477 1478 1484 1472 1459 1456 1455 1454 1454 1452 1446 1443 1440 1437 1434 1430 1426 1421 1416 1412 1408 1403 1398 1395 1391 1391 1392 1394 1396 1400 1405 1409 1413 1415 1417 1418 1418
1515 1523 1524 1521 1520 1500 1473 1476 1475 1466 1459 1457 1455 1454 1452 1449 1445 1441 1437 1433 1430 1426 1422 1418 1413 1408 1404 1400 1395 1389 1385 1384 1385 1384 1386 1388 1393 1397 1401 1405 1408 1410 1411 1412
1503 1499 1496 1495 1483 1471 1469 1467 1464 1462 1459 1456 1453 1451 1448 1444 1439 1435 1430 1426 1422 1419 1414 1410 1404 1399 1395 1391 1386 1381 1378 1378 1376 1376 1377 1380 1385 1389 1393 1397 1400 1402 1404 1405
1491 1488 1487 1482 1471 1466 1463 1461 1460 1458 1454 1451 1449 1446 1442 1438 1433 1428 1423 1419 1415 1411 1407 1402 1396 1391 1386 1382 1377 1373 1371 1369 1368 1367 1369 1372 1375 1380 1384 1388 1391 1394 1396 1398
1483 1482 1478 1469 1464 1461 1456 1456 1454 1451 1448 1446 1443 1440 1436 1431 1425 1421 1416 1412 1408 1403 1399 1394 1389 1383 1378 1373 1368 1365 1362 1359 1358 1358 1359 1362 1366 1370 1374 1379 1383 1386 1389 1391
1472 1473 1471 1458 1456 1454 1448 1450 1449 1444 1441 1438 1434 1430 1428 1424 1419 1415 1410 1406 1401 1396 1392 1386 1381 1375 1370 1365 1359 1356 1353 1350 1349 1348 1350 1352 1356 1360 1365 1370 1375 1379 1383 1385